owner,sensor,date,latitude,longitude,vertical_datum,direction_of_sea_water_velocity,sea_water_speed,upward_sea_water_velocity,qcFlag 
ADCP,ioos:station:wmo:42373:1,2008-01-01T00:06:00Z,27.3540,-94.6250,79.0,252.0,19.1,-9999.0,'11111222,11111222,99999999' 
ADCP,ioos:station:wmo:42373:1,2008-01-01T00:26:00Z,27.3540,-94.6250,79.0,256.0,17.5,-9999.0,'11111222,11111222,99999999' 
ADCP,ioos:station:wmo:42373:1,2008-01-01T00:46:00Z,27.3540,-94.6250,79.0,261.0,17.1,-9999.0,'11111222,11111222,99999999' 
ADCP,ioos:station:wmo:42373:1,2008-01-01T01:06:00Z,27.3540,-94.6250,79.0,269.0,15.7,-9999.0,'11111222,11111222,99999999' 
ADCP,ioos:station:wmo:42373:1,2008-01-01T01:26:00Z,27.3540,-94.6250,79.0,278.0,14.7,-9999.0,'11111222,11111222,99999999' 
ADCP,ioos:station:wmo:42373:1,2008-01-01T01:46:00Z,27.3540,-94.6250,79.0,285.0,15.0,-9999.0,'11111222,11111222,99999999' 
ADCP,ioos:station:wmo:42373:1,2008-01-01T02:06:00Z,27.3540,-94.6250,79.0,293.0,14.5,-9999.0,'11111222,11111222,99999999' 
ADCP,ioos:station:wmo:42373:1,2008-01-01T02:26:00Z,27.3540,-94.6250,79.0,301.0,13.7,-9999.0,'11111222,11111222,99999999' 
ADCP,ioos:station:wmo:42373:1,2008-01-01T02:46:00Z,27.3540,-94.6250,79.0,306.0,13.0,-9999.0,'11111222,11111222,99999999' 
ADCP,ioos:station:wmo:42373:1,2008-01-01T03:06:00Z,27.3540,-94.6250,79.0,310.0,12.7,-9999.0,'11111222,11111222,99999999' 
ADCP,ioos:station:wmo:42373:1,2008-01-01T03:26:00Z,27.3540,-94.6250,79.0,316.0,11.8,-9999.0,'11111222,11111222,99999999' 
ADCP,ioos:station:wmo:42373:1,2008-01-01T03:46:00Z,27.3540,-94.6250,79.0,319.0,11.1,-9999.0,'11111222,11111222,99999999' 
ADCP,ioos:station:wmo:42373:1,2008-01-01T04:06:00Z,27.3540,-94.6250,79.0,325.0,10.3,-9999.0,'11111222,11111222,99999999' 
ADCP,ioos:station:wmo:42373:1,2008-01-01T04:26:00Z,27.3540,-94.6250,79.0,333.0,9.2,-9999.0,'11133222,11111222,99999999' 
ADCP,ioos:station:wmo:42373:1,2008-01-01T04:46:00Z,27.3540,-94.6250,79.0,335.0,8.6,-9999.0,'11133222,11111222,99999999' 
ADCP,ioos:station:wmo:42373:1,2008-01-01T05:06:00Z,27.3540,-94.6250,79.0,346.0,7.9,-9999.0,'11133222,11111222,99999999' 
ADCP,ioos:station:wmo:42373:1,2008-01-01T05:26:00Z,27.3540,-94.6250,79.0,343.0,7.7,-9999.0,'11133222,11111222,99999999' 
ADCP,ioos:station:wmo:42373:1,2008-01-01T05:46:00Z,27.3540,-94.6250,79.0,1.0,7.6,-9999.0,'11133222,11111222,99999999' 
ADCP,ioos:station:wmo:42373:1,2008-01-01T06:06:00Z,27.3540,-94.6250,79.0,19.0,7.9,-9999.0,'11133222,11111222,99999999' 
ADCP,ioos:station:wmo:42373:1,2008-01-01T06:26:00Z,27.3540,-94.6250,79.0,28.0,8.0,-9999.0,'11133222,11111222,99999999' 
ADCP,ioos:station:wmo:42373:1,2008-01-01T06:46:00Z,27.3540,-94.6250,79.0,20.0,6.7,-9999.0,'11133222,11111222,99999999' 
ADCP,ioos:station:wmo:42373:1,2008-01-01T07:06:00Z,27.3540,-94.6250,79.0,29.0,6.0,-9999.0,'11133222,11111222,99999999' 
ADCP,ioos:station:wmo:42373:1,2008-01-01T07:26:00Z,27.3540,-94.6250,79.0,20.0,5.6,-9999.0,'11133222,11111222,99999999' 
ADCP,ioos:station:wmo:42373:1,2008-01-01T07:46:00Z,27.3540,-94.6250,79.0,51.0,7.7,-9999.0,'11133222,11111222,99999999' 
ADCP,ioos:station:wmo:42373:1,2008-01-01T08:06:00Z,27.3540,-94.6250,79.0,25.0,7.7,-9999.0,'11133222,11111222,99999999' 
ADCP,ioos:station:wmo:42373:1,2008-01-01T08:26:00Z,27.3540,-94.6250,79.0,357.0,8.4,-9999.0,'11133222,11111222,99999999' 
ADCP,ioos:station:wmo:42373:1,2008-01-01T08:46:00Z,27.3540,-94.6250,79.0,340.0,8.2,-9999.0,'11133222,11111222,99999999' 
ADCP,ioos:station:wmo:42373:1,2008-01-01T09:06:00Z,27.3540,-94.6250,79.0,311.0,9.6,-9999.0,'11133222,11111222,99999999' 
ADCP,ioos:station:wmo:42373:1,2008-01-01T09:26:00Z,27.3540,-94.6250,79.0,305.0,7.5,-9999.0,'11133222,11111222,99999999' 
ADCP,ioos:station:wmo:42373:1,2008-01-01T09:46:00Z,27.3540,-94.6250,79.0,307.0,8.8,-9999.0,'11133222,11111222,99999999' 
ADCP,ioos:station:wmo:42373:1,2008-01-01T10:06:00Z,27.3540,-94.6250,79.0,289.0,10.9,-9999.0,'11111222,11111222,99999999' 
ADCP,ioos:station:wmo:42373:1,2008-01-01T10:26:00Z,27.3540,-94.6250,79.0,276.0,11.0,-9999.0,'11111222,11111222,99999999' 
ADCP,ioos:station:wmo:42373:1,2008-01-01T10:46:00Z,27.3540,-94.6250,79.0,277.0,12.4,-9999.0,'11111222,11111222,99999999' 
ADCP,ioos:station:wmo:42373:1,2008-01-01T11:06:00Z,27.3540,-94.6250,79.0,258.0,11.4,-9999.0,'11111222,11111222,99999999' 
ADCP,ioos:station:wmo:42373:1,2008-01-01T11:26:00Z,27.3540,-94.6250,79.0,263.0,8.5,-9999.0,'11133222,11111222,99999999' 
ADCP,ioos:station:wmo:42373:1,2008-01-01T11:46:00Z,27.3540,-94.6250,79.0,265.0,11.2,-9999.0,'11111222,11111222,99999999' 
ADCP,ioos:station:wmo:42373:1,2008-01-01T12:06:00Z,27.3540,-94.6250,79.0,260.0,10.5,-9999.0,'11111222,11111222,99999999' 
ADCP,ioos:station:wmo:42373:1,2008-01-01T12:26:00Z,27.3540,-94.6250,79.0,258.0,10.2,-9999.0,'11111222,11111222,99999999' 
ADCP,ioos:station:wmo:42373:1,2008-01-01T12:46:00Z,27.3540,-94.6250,79.0,262.0,16.5,-9999.0,'11111222,11111222,99999999' 
ADCP,ioos:station:wmo:42373:1,2008-01-01T13:06:00Z,27.3540,-94.6250,79.0,253.0,17.4,-9999.0,'11111222,11111222,99999999' 
ADCP,ioos:station:wmo:42373:1,2008-01-01T13:26:00Z,27.3540,-94.6250,79.0,255.0,14.7,-9999.0,'11111222,11111222,99999999' 
ADCP,ioos:station:wmo:42373:1,2008-01-01T13:46:00Z,27.3540,-94.6250,79.0,253.0,20.0,-9999.0,'11111222,11111222,99999999' 
ADCP,ioos:station:wmo:42373:1,2008-01-01T14:06:00Z,27.3540,-94.6250,79.0,253.0,14.0,-9999.0,'11111222,11111222,99999999' 
ADCP,ioos:station:wmo:42373:1,2008-01-01T14:26:00Z,27.3540,-94.6250,79.0,259.0,19.0,-9999.0,'11111222,11111222,99999999' 
ADCP,ioos:station:wmo:42373:1,2008-01-01T14:46:00Z,27.3540,-94.6250,79.0,256.0,20.7,-9999.0,'11111222,11111222,99999999' 
ADCP,ioos:station:wmo:42373:1,2008-01-01T15:06:00Z,27.3540,-94.6250,79.0,257.0,19.6,-9999.0,'11111222,11111222,99999999' 
ADCP,ioos:station:wmo:42373:1,2008-01-01T15:26:00Z,27.3540,-94.6250,79.0,252.0,13.4,-9999.0,'11111222,11111222,99999999' 
ADCP,ioos:station:wmo:42373:1,2008-01-01T15:46:00Z,27.3540,-94.6250,79.0,253.0,19.2,-9999.0,'11111222,11111222,99999999' 
ADCP,ioos:station:wmo:42373:1,2008-01-01T16:06:00Z,27.3540,-94.6250,79.0,254.0,18.4,-9999.0,'11111222,11111222,99999999' 
ADCP,ioos:station:wmo:42373:1,2008-01-01T16:26:00Z,27.3540,-94.6250,79.0,260.0,17.8,-9999.0,'11111222,11111222,99999999' 
ADCP,ioos:station:wmo:42373:1,2008-01-01T16:46:00Z,27.3540,-94.6250,79.0,259.0,21.0,-9999.0,'11111222,11111222,99999999' 
ADCP,ioos:station:wmo:42373:1,2008-01-01T17:06:00Z,27.3540,-94.6250,79.0,262.0,16.6,-9999.0,'11111222,11111222,99999999' 
ADCP,ioos:station:wmo:42373:1,2008-01-01T17:26:00Z,27.3540,-94.6250,79.0,258.0,18.9,-9999.0,'11111222,11111222,99999999' 
ADCP,ioos:station:wmo:42373:1,2008-01-01T17:46:00Z,27.3540,-94.6250,79.0,260.0,18.6,-9999.0,'11111222,11111222,99999999' 
ADCP,ioos:station:wmo:42373:1,2008-01-01T18:06:00Z,27.3540,-94.6250,79.0,264.0,17.1,-9999.0,'11111222,11111222,99999999' 
ADCP,ioos:station:wmo:42373:1,2008-01-01T18:26:00Z,27.3540,-94.6250,79.0,269.0,19.1,-9999.0,'11111222,11111222,99999999' 
ADCP,ioos:station:wmo:42373:1,2008-01-01T18:46:00Z,27.3540,-94.6250,79.0,268.0,20.4,-9999.0,'11111222,11111222,99999999' 
ADCP,ioos:station:wmo:42373:1,2008-01-01T19:06:00Z,27.3540,-94.6250,79.0,264.0,19.4,-9999.0,'11111222,11111222,99999999' 
ADCP,ioos:station:wmo:42373:1,2008-01-01T19:26:00Z,27.3540,-94.6250,79.0,270.0,18.0,-9999.0,'11111222,11111222,99999999' 
ADCP,ioos:station:wmo:42373:1,2008-01-01T19:46:00Z,27.3540,-94.6250,79.0,274.0,19.6,-9999.0,'11111222,11111222,99999999' 
ADCP,ioos:station:wmo:42373:1,2008-01-01T20:06:00Z,27.3540,-94.6250,79.0,274.0,19.8,-9999.0,'11111222,11111222,99999999' 
ADCP,ioos:station:wmo:42373:1,2008-01-01T20:26:00Z,27.3540,-94.6250,79.0,271.0,21.6,-9999.0,'11111222,11111222,99999999' 
ADCP,ioos:station:wmo:42373:1,2008-01-01T20:46:00Z,27.3540,-94.6250,79.0,281.0,19.3,-9999.0,'11111222,11111222,99999999' 
ADCP,ioos:station:wmo:42373:1,2008-01-01T21:06:00Z,27.3540,-94.6250,79.0,277.0,20.0,-9999.0,'11111222,11111222,99999999' 
ADCP,ioos:station:wmo:42373:1,2008-01-01T21:26:00Z,27.3540,-94.6250,79.0,279.0,20.5,-9999.0,'11111222,11111222,99999999' 
ADCP,ioos:station:wmo:42373:1,2008-01-01T21:46:00Z,27.3540,-94.6250,79.0,285.0,19.6,-9999.0,'11111222,11111222,99999999' 
ADCP,ioos:station:wmo:42373:1,2008-01-01T22:06:00Z,27.3540,-94.6250,79.0,289.0,18.2,-9999.0,'11111222,11111222,99999999' 
ADCP,ioos:station:wmo:42373:1,2008-01-01T22:26:00Z,27.3540,-94.6250,79.0,288.0,18.2,-9999.0,'11111222,11111222,99999999' 
ADCP,ioos:station:wmo:42373:1,2008-01-01T22:46:00Z,27.3540,-94.6250,79.0,282.0,18.9,-9999.0,'11111222,11111222,99999999' 
ADCP,ioos:station:wmo:42373:1,2008-01-01T23:06:00Z,27.3540,-94.6250,79.0,293.0,16.5,-9999.0,'11111222,11111222,99999999' 
ADCP,ioos:station:wmo:42373:1,2008-01-01T23:26:00Z,27.3540,-94.6250,79.0,291.0,20.4,-9999.0,'11111222,11111222,99999999' 
ADCP,ioos:station:wmo:42373:1,2008-01-01T23:46:00Z,27.3540,-94.6250,79.0,299.0,17.1,-9999.0,'11111222,11111222,99999999' 
ADCP,ioos:station:wmo:42373:1,2008-01-02T00:06:00Z,27.3540,-94.6250,79.0,295.0,15.8,-9999.0,'11111222,11111222,99999999' 
ADCP,ioos:station:wmo:42373:1,2008-01-02T00:26:00Z,27.3540,-94.6250,79.0,296.0,15.7,-9999.0,'11111222,11111222,99999999' 
ADCP,ioos:station:wmo:42373:1,2008-01-02T00:46:00Z,27.3540,-94.6250,79.0,303.0,15.6,-9999.0,'11111222,11111222,99999999' 
ADCP,ioos:station:wmo:42373:1,2008-01-02T01:06:00Z,27.3540,-94.6250,79.0,308.0,14.7,-9999.0,'11111222,11111222,99999999' 
ADCP,ioos:station:wmo:42373:1,2008-01-02T01:26:00Z,27.3540,-94.6250,79.0,304.0,12.4,-9999.0,'11111222,11111222,99999999' 
ADCP,ioos:station:wmo:42373:1,2008-01-02T01:46:00Z,27.3540,-94.6250,79.0,323.0,11.2,-9999.0,'11111222,11111222,99999999' 
ADCP,ioos:station:wmo:42373:1,2008-01-02T02:06:00Z,27.3540,-94.6250,79.0,317.0,10.0,-9999.0,'11111222,11111222,99999999' 
ADCP,ioos:station:wmo:42373:1,2008-01-02T02:26:00Z,27.3540,-94.6250,79.0,315.0,11.5,-9999.0,'11111222,11111222,99999999' 
ADCP,ioos:station:wmo:42373:1,2008-01-02T02:46:00Z,27.3540,-94.6250,79.0,9.0,7.4,-9999.0,'11133222,11111222,99999999' 
ADCP,ioos:station:wmo:42373:1,2008-01-02T03:06:00Z,27.3540,-94.6250,79.0,17.0,6.7,-9999.0,'11133222,11111222,99999999' 
ADCP,ioos:station:wmo:42373:1,2008-01-02T03:26:00Z,27.3540,-94.6250,79.0,317.0,6.2,-9999.0,'11133222,11111222,99999999' 
ADCP,ioos:station:wmo:42373:1,2008-01-02T03:46:00Z,27.3540,-94.6250,79.0,43.0,8.9,-9999.0,'11133222,11111222,99999999' 
ADCP,ioos:station:wmo:42373:1,2008-01-02T04:06:00Z,27.3540,-94.6250,79.0,30.0,8.6,-9999.0,'11133222,11111222,99999999' 
ADCP,ioos:station:wmo:42373:1,2008-01-02T04:26:00Z,27.3540,-94.6250,79.0,336.0,4.4,-9999.0,'11133222,11111222,99999999' 
ADCP,ioos:station:wmo:42373:1,2008-01-02T04:46:00Z,27.3540,-94.6250,79.0,36.0,6.8,-9999.0,'11133222,11111222,99999999' 
ADCP,ioos:station:wmo:42373:1,2008-01-02T05:06:00Z,27.3540,-94.6250,79.0,34.0,4.8,-9999.0,'11133222,11111222,99999999' 
ADCP,ioos:station:wmo:42373:1,2008-01-02T05:26:00Z,27.3540,-94.6250,79.0,43.0,1.8,-9999.0,'11133222,11111222,99999999' 
ADCP,ioos:station:wmo:42373:1,2008-01-02T05:46:00Z,27.3540,-94.6250,79.0,344.0,3.2,-9999.0,'11133222,11111222,99999999' 
ADCP,ioos:station:wmo:42373:1,2008-01-02T06:06:00Z,27.3540,-94.6250,79.0,290.0,5.2,-9999.0,'11133222,11111222,99999999' 
ADCP,ioos:station:wmo:42373:1,2008-01-02T06:26:00Z,27.3540,-94.6250,79.0,291.0,3.9,-9999.0,'11133222,11111222,99999999' 
ADCP,ioos:station:wmo:42373:1,2008-01-02T06:46:00Z,27.3540,-94.6250,79.0,270.0,5.9,-9999.0,'11133222,11111222,99999999' 
ADCP,ioos:station:wmo:42373:1,2008-01-02T07:06:00Z,27.3540,-94.6250,79.0,68.0,5.7,-9999.0,'11133222,11111222,99999999' 
ADCP,ioos:station:wmo:42373:1,2008-01-02T07:26:00Z,27.3540,-94.6250,79.0,236.0,0.7,-9999.0,'11133222,11111222,99999999' 
ADCP,ioos:station:wmo:42373:1,2008-01-02T07:46:00Z,27.3540,-94.6250,79.0,74.0,5.1,-9999.0,'11133222,11111222,99999999' 
ADCP,ioos:station:wmo:42373:1,2008-01-02T08:06:00Z,27.3540,-94.6250,79.0,112.0,6.2,-9999.0,'11133222,11111222,99999999' 
ADCP,ioos:station:wmo:42373:1,2008-01-02T08:26:00Z,27.3540,-94.6250,79.0,171.0,3.3,-9999.0,'11133222,11111222,99999999' 
ADCP,ioos:station:wmo:42373:1,2008-01-02T08:46:00Z,27.3540,-94.6250,79.0,202.0,2.9,-9999.0,'11133222,11111222,99999999' 
ADCP,ioos:station:wmo:42373:1,2008-01-02T09:06:00Z,27.3540,-94.6250,79.0,131.0,4.4,-9999.0,'11133222,11111222,99999999' 
ADCP,ioos:station:wmo:42373:1,2008-01-02T09:26:00Z,27.3540,-94.6250,79.0,129.0,5.0,-9999.0,'11133222,11111222,99999999' 
ADCP,ioos:station:wmo:42373:1,2008-01-02T09:46:00Z,27.3540,-94.6250,79.0,144.0,5.1,-9999.0,'11133222,11111222,99999999' 
ADCP,ioos:station:wmo:42373:1,2008-01-02T10:06:00Z,27.3540,-94.6250,79.0,133.0,5.7,-9999.0,'11133222,11111222,99999999' 
ADCP,ioos:station:wmo:42373:1,2008-01-02T10:26:00Z,27.3540,-94.6250,79.0,124.0,5.7,-9999.0,'11133222,11111222,99999999' 
ADCP,ioos:station:wmo:42373:1,2008-01-02T10:46:00Z,27.3540,-94.6250,79.0,169.0,3.8,-9999.0,'11133222,11111222,99999999' 
ADCP,ioos:station:wmo:42373:1,2008-01-02T11:06:00Z,27.3540,-94.6250,79.0,143.0,5.9,-9999.0,'11133222,11111222,99999999' 
ADCP,ioos:station:wmo:42373:1,2008-01-02T11:26:00Z,27.3540,-94.6250,79.0,143.0,8.6,-9999.0,'11133222,11111222,99999999' 
ADCP,ioos:station:wmo:42373:1,2008-01-02T11:46:00Z,27.3540,-94.6250,79.0,200.0,6.8,-9999.0,'11133222,11111222,99999999' 
ADCP,ioos:station:wmo:42373:1,2008-01-02T12:06:00Z,27.3540,-94.6250,79.0,161.0,7.6,-9999.0,'11133222,11111222,99999999' 
ADCP,ioos:station:wmo:42373:1,2008-01-02T12:26:00Z,27.3540,-94.6250,79.0,177.0,10.8,-9999.0,'11111222,11111222,99999999' 
ADCP,ioos:station:wmo:42373:1,2008-01-02T12:46:00Z,27.3540,-94.6250,79.0,180.0,10.7,-9999.0,'11111222,11111222,99999999' 
ADCP,ioos:station:wmo:42373:1,2008-01-02T13:06:00Z,27.3540,-94.6250,79.0,184.0,9.0,-9999.0,'11133222,11111222,99999999' 
ADCP,ioos:station:wmo:42373:1,2008-01-02T13:26:00Z,27.3540,-94.6250,79.0,180.0,5.7,-9999.0,'11133222,11111222,99999999' 
ADCP,ioos:station:wmo:42373:1,2008-01-02T13:46:00Z,27.3540,-94.6250,79.0,213.0,9.5,-9999.0,'11133222,11111222,99999999' 
ADCP,ioos:station:wmo:42373:1,2008-01-02T14:06:00Z,27.3540,-94.6250,79.0,195.0,9.3,-9999.0,'11133222,11111222,99999999' 
ADCP,ioos:station:wmo:42373:1,2008-01-02T14:26:00Z,27.3540,-94.6250,79.0,213.0,10.2,-9999.0,'11111222,11111222,99999999' 
ADCP,ioos:station:wmo:42373:1,2008-01-02T14:46:00Z,27.3540,-94.6250,79.0,225.0,12.9,-9999.0,'11111222,11111222,99999999' 
ADCP,ioos:station:wmo:42373:1,2008-01-02T15:06:00Z,27.3540,-94.6250,79.0,224.0,14.1,-9999.0,'11111222,11111222,99999999' 
ADCP,ioos:station:wmo:42373:1,2008-01-02T15:26:00Z,27.3540,-94.6250,79.0,206.0,11.5,-9999.0,'11111222,11111222,99999999' 
ADCP,ioos:station:wmo:42373:1,2008-01-02T15:46:00Z,27.3540,-94.6250,79.0,213.0,14.2,-9999.0,'11111222,11111222,99999999' 
ADCP,ioos:station:wmo:42373:1,2008-01-02T16:06:00Z,27.3540,-94.6250,79.0,222.0,11.3,-9999.0,'11111222,11111222,99999999' 
ADCP,ioos:station:wmo:42373:1,2008-01-02T16:26:00Z,27.3540,-94.6250,79.0,225.0,12.7,-9999.0,'11111222,11111222,99999999' 
ADCP,ioos:station:wmo:42373:1,2008-01-02T16:46:00Z,27.3540,-94.6250,79.0,218.0,14.1,-9999.0,'11111222,11111222,99999999' 
ADCP,ioos:station:wmo:42373:1,2008-01-02T17:06:00Z,27.3540,-94.6250,79.0,235.0,16.5,-9999.0,'11111222,11111222,99999999' 
ADCP,ioos:station:wmo:42373:1,2008-01-02T17:26:00Z,27.3540,-94.6250,79.0,230.0,15.6,-9999.0,'11111222,11111222,99999999' 
ADCP,ioos:station:wmo:42373:1,2008-01-02T17:46:00Z,27.3540,-94.6250,79.0,235.0,12.4,-9999.0,'11111222,11111222,99999999' 
ADCP,ioos:station:wmo:42373:1,2008-01-02T18:06:00Z,27.3540,-94.6250,79.0,235.0,14.1,-9999.0,'11111222,11111222,99999999' 
ADCP,ioos:station:wmo:42373:1,2008-01-02T18:26:00Z,27.3540,-94.6250,79.0,239.0,15.8,-9999.0,'11111222,11111222,99999999' 
ADCP,ioos:station:wmo:42373:1,2008-01-02T18:46:00Z,27.3540,-94.6250,79.0,247.0,14.6,-9999.0,'11111222,11111222,99999999' 
ADCP,ioos:station:wmo:42373:1,2008-01-02T19:06:00Z,27.3540,-94.6250,79.0,248.0,18.3,-9999.0,'11111222,11111222,99999999' 
ADCP,ioos:station:wmo:42373:1,2008-01-02T19:26:00Z,27.3540,-94.6250,79.0,239.0,13.4,-9999.0,'11111222,11111222,99999999' 
ADCP,ioos:station:wmo:42373:1,2008-01-02T19:46:00Z,27.3540,-94.6250,79.0,251.0,16.7,-9999.0,'11111222,11111222,99999999' 
ADCP,ioos:station:wmo:42373:1,2008-01-02T20:06:00Z,27.3540,-94.6250,79.0,249.0,14.8,-9999.0,'11111222,11111222,99999999' 
ADCP,ioos:station:wmo:42373:1,2008-01-02T20:26:00Z,27.3540,-94.6250,79.0,257.0,18.1,-9999.0,'11111222,11111222,99999999' 
ADCP,ioos:station:wmo:42373:1,2008-01-02T20:46:00Z,27.3540,-94.6250,79.0,256.0,12.3,-9999.0,'11111222,11111222,99999999' 
ADCP,ioos:station:wmo:42373:1,2008-01-02T21:06:00Z,27.3540,-94.6250,79.0,264.0,16.5,-9999.0,'11111222,11111222,99999999' 
ADCP,ioos:station:wmo:42373:1,2008-01-02T21:26:00Z,27.3540,-94.6250,79.0,261.0,13.4,-9999.0,'11111222,11111222,99999999' 
ADCP,ioos:station:wmo:42373:1,2008-01-02T21:46:00Z,27.3540,-94.6250,79.0,271.0,16.3,-9999.0,'11111222,11111222,99999999' 
ADCP,ioos:station:wmo:42373:1,2008-01-02T22:06:00Z,27.3540,-94.6250,79.0,274.0,16.0,-9999.0,'11111222,11111222,99999999' 
ADCP,ioos:station:wmo:42373:1,2008-01-02T22:26:00Z,27.3540,-94.6250,79.0,279.0,13.1,-9999.0,'11111222,11111222,99999999' 
ADCP,ioos:station:wmo:42373:1,2008-01-02T22:46:00Z,27.3540,-94.6250,79.0,291.0,12.8,-9999.0,'11111222,11111222,99999999' 
ADCP,ioos:station:wmo:42373:1,2008-01-02T23:06:00Z,27.3540,-94.6250,79.0,276.0,16.5,-9999.0,'11111222,11111222,99999999' 
ADCP,ioos:station:wmo:42373:1,2008-01-02T23:26:00Z,27.3540,-94.6250,79.0,287.0,11.7,-9999.0,'11111222,11111222,99999999' 
ADCP,ioos:station:wmo:42373:1,2008-01-02T23:46:00Z,27.3540,-94.6250,79.0,298.0,9.4,-9999.0,'11133222,11111222,99999999' 
ADCP,ioos:station:wmo:42373:1,2008-01-03T00:06:00Z,27.3540,-94.6250,79.0,300.0,12.9,-9999.0,'11111222,11111222,99999999' 
ADCP,ioos:station:wmo:42373:1,2008-01-03T00:26:00Z,27.3540,-94.6250,79.0,303.0,8.9,-9999.0,'11133222,11111222,99999999' 
ADCP,ioos:station:wmo:42373:1,2008-01-03T00:46:00Z,27.3540,-94.6250,79.0,322.0,8.8,-9999.0,'11133222,11111222,99999999' 
ADCP,ioos:station:wmo:42373:1,2008-01-03T01:06:00Z,27.3540,-94.6250,79.0,327.0,6.3,-9999.0,'11133222,11111222,99999999' 
ADCP,ioos:station:wmo:42373:1,2008-01-03T01:26:00Z,27.3540,-94.6250,79.0,345.0,7.2,-9999.0,'11133222,11111222,99999999' 
ADCP,ioos:station:wmo:42373:1,2008-01-03T01:46:00Z,27.3540,-94.6250,79.0,348.0,5.5,-9999.0,'11133222,11111222,99999999' 
ADCP,ioos:station:wmo:42373:1,2008-01-03T02:06:00Z,27.3540,-94.6250,79.0,7.0,6.3,-9999.0,'11133222,11111222,99999999' 
ADCP,ioos:station:wmo:42373:1,2008-01-03T02:26:00Z,27.3540,-94.6250,79.0,347.0,4.4,-9999.0,'11133222,11111222,99999999' 
ADCP,ioos:station:wmo:42373:1,2008-01-03T02:46:00Z,27.3540,-94.6250,79.0,21.0,4.8,-9999.0,'11133222,11111222,99999999' 
ADCP,ioos:station:wmo:42373:1,2008-01-03T03:06:00Z,27.3540,-94.6250,79.0,35.0,3.7,-9999.0,'11133222,11111222,99999999' 
ADCP,ioos:station:wmo:42373:1,2008-01-03T03:26:00Z,27.3540,-94.6250,79.0,282.0,4.7,-9999.0,'11133222,11111222,99999999' 
ADCP,ioos:station:wmo:42373:1,2008-01-03T03:46:00Z,27.3540,-94.6250,79.0,9.0,3.7,-9999.0,'11133222,11111222,99999999' 
ADCP,ioos:station:wmo:42373:1,2008-01-03T04:06:00Z,27.3540,-94.6250,79.0,309.0,3.5,-9999.0,'11133222,11111222,99999999' 
ADCP,ioos:station:wmo:42373:1,2008-01-03T04:26:00Z,27.3540,-94.6250,79.0,349.0,2.5,-9999.0,'11133222,11111222,99999999' 
ADCP,ioos:station:wmo:42373:1,2008-01-03T04:46:00Z,27.3540,-94.6250,79.0,17.0,4.7,-9999.0,'11133222,11111222,99999999' 
ADCP,ioos:station:wmo:42373:1,2008-01-03T05:06:00Z,27.3540,-94.6250,79.0,47.0,5.4,-9999.0,'11133222,11111222,99999999' 
ADCP,ioos:station:wmo:42373:1,2008-01-03T05:26:00Z,27.3540,-94.6250,79.0,36.0,7.6,-9999.0,'11133222,11111222,99999999' 
ADCP,ioos:station:wmo:42373:1,2008-01-03T05:46:00Z,27.3540,-94.6250,79.0,59.0,10.8,-9999.0,'11111222,11111222,99999999' 
ADCP,ioos:station:wmo:42373:1,2008-01-03T06:06:00Z,27.3540,-94.6250,79.0,61.0,10.3,-9999.0,'11111222,11111222,99999999' 
ADCP,ioos:station:wmo:42373:1,2008-01-03T06:26:00Z,27.3540,-94.6250,79.0,71.0,10.8,-9999.0,'11111222,11111222,99999999' 
ADCP,ioos:station:wmo:42373:1,2008-01-03T06:46:00Z,27.3540,-94.6250,79.0,67.0,13.7,-9999.0,'11111222,11111222,99999999' 
ADCP,ioos:station:wmo:42373:1,2008-01-03T07:06:00Z,27.3540,-94.6250,79.0,78.0,12.6,-9999.0,'11111222,11111222,99999999' 
ADCP,ioos:station:wmo:42373:1,2008-01-03T07:26:00Z,27.3540,-94.6250,79.0,83.0,10.1,-9999.0,'11111222,11111222,99999999' 
ADCP,ioos:station:wmo:42373:1,2008-01-03T07:46:00Z,27.3540,-94.6250,79.0,81.0,13.4,-9999.0,'11111222,11111222,99999999' 
ADCP,ioos:station:wmo:42373:1,2008-01-03T08:06:00Z,27.3540,-94.6250,79.0,90.0,14.7,-9999.0,'11111222,11111222,99999999' 
ADCP,ioos:station:wmo:42373:1,2008-01-03T08:26:00Z,27.3540,-94.6250,79.0,89.0,17.1,-9999.0,'11111222,11111222,99999999' 
ADCP,ioos:station:wmo:42373:1,2008-01-03T08:46:00Z,27.3540,-94.6250,79.0,94.0,15.5,-9999.0,'11111222,11111222,99999999' 
ADCP,ioos:station:wmo:42373:1,2008-01-03T09:06:00Z,27.3540,-94.6250,79.0,91.0,17.1,-9999.0,'11111222,11111222,99999999' 
ADCP,ioos:station:wmo:42373:1,2008-01-03T09:26:00Z,27.3540,-94.6250,79.0,96.0,16.5,-9999.0,'11111222,11111222,99999999' 
ADCP,ioos:station:wmo:42373:1,2008-01-03T09:46:00Z,27.3540,-94.6250,79.0,97.0,17.6,-9999.0,'11111222,11111222,99999999' 
ADCP,ioos:station:wmo:42373:1,2008-01-03T10:06:00Z,27.3540,-94.6250,79.0,104.0,17.2,-9999.0,'11111222,11111222,99999999' 
ADCP,ioos:station:wmo:42373:1,2008-01-03T10:26:00Z,27.3540,-94.6250,79.0,104.0,17.9,-9999.0,'11111222,11111222,99999999' 
ADCP,ioos:station:wmo:42373:1,2008-01-03T10:46:00Z,27.3540,-94.6250,79.0,108.0,17.1,-9999.0,'11111222,11111222,99999999' 
ADCP,ioos:station:wmo:42373:1,2008-01-03T11:06:00Z,27.3540,-94.6250,79.0,110.0,18.9,-9999.0,'11111222,11111222,99999999' 
ADCP,ioos:station:wmo:42373:1,2008-01-03T11:26:00Z,27.3540,-94.6250,79.0,109.0,17.4,-9999.0,'11111222,11111222,99999999' 
ADCP,ioos:station:wmo:42373:1,2008-01-03T11:46:00Z,27.3540,-94.6250,79.0,118.0,18.8,-9999.0,'11111222,11111222,99999999' 
ADCP,ioos:station:wmo:42373:1,2008-01-03T12:06:00Z,27.3540,-94.6250,79.0,120.0,19.9,-9999.0,'11111222,11111222,99999999' 
ADCP,ioos:station:wmo:42373:1,2008-01-03T12:26:00Z,27.3540,-94.6250,79.0,122.0,19.6,-9999.0,'11111222,11111222,99999999' 
ADCP,ioos:station:wmo:42373:1,2008-01-03T12:46:00Z,27.3540,-94.6250,79.0,124.0,17.3,-9999.0,'11111222,11111222,99999999' 
ADCP,ioos:station:wmo:42373:1,2008-01-03T13:06:00Z,27.3540,-94.6250,79.0,129.0,12.6,-9999.0,'11111222,11111222,99999999' 
ADCP,ioos:station:wmo:42373:1,2008-01-03T13:26:00Z,27.3540,-94.6250,79.0,179.0,10.4,-9999.0,'11111222,11111222,99999999' 
ADCP,ioos:station:wmo:42373:1,2008-01-03T13:46:00Z,27.3540,-94.6250,79.0,163.0,9.3,-9999.0,'11133222,11111222,99999999' 
ADCP,ioos:station:wmo:42373:1,2008-01-03T14:06:00Z,27.3540,-94.6250,79.0,152.0,13.7,-9999.0,'11111222,11111222,99999999' 
ADCP,ioos:station:wmo:42373:1,2008-01-03T14:26:00Z,27.3540,-94.6250,79.0,128.0,13.6,-9999.0,'11111222,11111222,99999999' 
ADCP,ioos:station:wmo:42373:1,2008-01-03T14:46:00Z,27.3540,-94.6250,79.0,145.0,13.1,-9999.0,'11111222,11111222,99999999' 
ADCP,ioos:station:wmo:42373:1,2008-01-03T15:06:00Z,27.3540,-94.6250,79.0,140.0,16.1,-9999.0,'11111222,11111222,99999999' 
ADCP,ioos:station:wmo:42373:1,2008-01-03T15:26:00Z,27.3540,-94.6250,79.0,168.0,13.7,-9999.0,'11111222,11111222,99999999' 
ADCP,ioos:station:wmo:42373:1,2008-01-03T15:46:00Z,27.3540,-94.6250,79.0,169.0,12.6,-9999.0,'11111222,11111222,99999999' 
ADCP,ioos:station:wmo:42373:1,2008-01-03T16:06:00Z,27.3540,-94.6250,79.0,165.0,12.5,-9999.0,'11111222,11111222,99999999' 
ADCP,ioos:station:wmo:42373:1,2008-01-03T16:26:00Z,27.3540,-94.6250,79.0,165.0,15.1,-9999.0,'11111222,11111222,99999999' 
ADCP,ioos:station:wmo:42373:1,2008-01-03T16:46:00Z,27.3540,-94.6250,79.0,159.0,15.0,-9999.0,'11111222,11111222,99999999' 
ADCP,ioos:station:wmo:42373:1,2008-01-03T17:06:00Z,27.3540,-94.6250,79.0,165.0,13.9,-9999.0,'11111222,11111222,99999999' 